Regional Weather Roundup
Issued by NWS

Home | Current Version | Previous Version | Graphics & Text | Print | Product List | Glossary Off
Versions: 1 2 3 4 5 6 7 8 9 10 11 12 13 14 15 16 17 18 19 20 21 22 23 24 25 26 27 28 29 30 31 32 33 34 35 36 37 38 39 40 41 42 43 44 45 46 47 48 49 50

000
ASUS43 KTOP 201159
RWRKS

WEATHER ROUNDUP FOR KANSAS
NATIONAL WEATHER SERVICE GOODLAND KS
700 AM CDT WED SEP 20 2017

NOTE:  "FAIR" INDICATES FEW OR NO CLOUDS BELOW 12,000 FEET WITH NO
SIGNIFICANT WEATHER AND/OR OBSTRUCTIONS TO VISIBILITY.

KSZ001>006-013>018-027>032-041>047-201300-
NORTHWEST KANSAS

CITY           SKY/WX    TMP DP  RH WIND       PRES   REMARKS
GOODLAND       CLOUDY    41  34  76 NW8       29.95R
6HR MIN TEMP:  41; 6HR MAX TEMP:  54;

HAYS           CLEAR     58  42  55 N15       29.82
HILL CITY      CLEAR     53  37  54 NW9       29.86R
6HR MIN TEMP:  53; 6HR MAX TEMP:  64;

RUSSELL        CLEAR     57  45  64 NW13      29.79R
6HR MIN TEMP:  57; 6HR MAX TEMP:  81;

$$

KSZ061>065-074>080-084>089-201300-
SOUTHWEST KANSAS

CITY           SKY/WX    TMP DP  RH WIND       PRES   REMARKS
DODGE CITY     CLOUDY    54  35  48 N14       29.85R
6HR MIN TEMP:  54; 6HR MAX TEMP:  75;

ELKHART          N/A     50  35  56 NW7         N/A
GARDEN CITY    CLOUDY    52  33  48 N14       29.88R
6HR MIN TEMP:  52; 6HR MAX TEMP:  66;

GREAT BEND     CLEAR     57  44  62 NW8       29.80R
LIBERAL        CLOUDY    51  38  60 N12       29.87R
$$

KSZ066>073-081>083-090>101-201300-
SOUTHEAST KANSAS

CITY           SKY/WX    TMP DP  RH WIND       PRES   REMARKS
CHANUTE        CLEAR     75  71  87 S13       29.78R
6HR MIN TEMP:  75; 6HR MAX TEMP:  78;

COFFEYVILLE    CLOUDY    76  71  85 S14       29.78R
6HR MIN TEMP:  76; 6HR MAX TEMP:  78;

HUTCHINSON     CLEAR     68  63  84 NW13      29.74R
6HR MIN TEMP:  66; 6HR MAX TEMP:  80;

MEDICINE LODGE   N/A     70  62  76 S8        29.74R
NEWTON         CLEAR     70  64  81 S10       29.76R
WICHITA INTL   PTCLDY    69  64  84 S9        29.75R
6HR MIN TEMP:  69; 6HR MAX TEMP:  79;

WICHITA JABRA  CLEAR     72  66  81 S7        29.76R
6HR MIN TEMP:  72; 6HR MAX TEMP:  79;

WINFIELD       CLEAR     74  67  78 S8        29.77R
6HR MIN TEMP:  74; 6HR MAX TEMP:  79;

$$

KSZ007>012-019>026-033>040-048>060-102>105-201300-
NORTHEAST KANSAS

CITY           SKY/WX    TMP DP  RH WIND       PRES   REMARKS
CONCORDIA      CLEAR     60  51  72 N7        29.75R
6HR MIN TEMP:  60; 6HR MAX TEMP:  80;

EMPORIA        CLEAR     72  68  87 SW7       29.77R
6HR MIN TEMP:  72; 6HR MAX TEMP:  77;

LAWRENCE       PTCLDY    73  70  90 SE8       29.75R
6HR MIN TEMP:  73; 6HR MAX TEMP:  79;

MANHATTAN      CLEAR     72  68  87 SW6       29.71R
6HR MIN TEMP:  71; 6HR MAX TEMP:  81;

OLATHE IND     CLEAR     73  70  90 S12       29.78R
6HR MIN TEMP:  73; 6HR MAX TEMP:  76;

OLATHE EXE     PTCLDY    73  71  93 S12       29.77R
6HR MIN TEMP:  72; 6HR MAX TEMP:  76;

SALINA         CLEAR     66  53  63 NW9       29.74R
6HR MIN TEMP:  66; 6HR MAX TEMP:  83;

TOPEKA BILLARD CLEAR     75  71  87 S10       29.74R
6HR MIN TEMP:  75; 6HR MAX TEMP:  79;

TOPEKA FORBES  CLEAR     74  71  91 S9        29.76R
6HR MIN TEMP:  74; 6HR MAX TEMP:  79;

$$




USA.gov is the U.S. government's official web portal to all federal, state and local government web resources and services.